This demonstration page uses our WeatherBlox Daily Observations layout. Learn more.

Left ArrowRight Arrow

Hourly Observations for October 12, 2016

Temp ( °F °C ) Dew Point ( °F °C ) Humidity (%) Winds ( mph kmh ) Pressure ( in mb ) Visibility ( mi km ) Precip ( " mm )
12:51 am 00:51 Clear 60 15.6 50 10 70 70 ESE 3 6 29.93 1014 10 16 0.00 0.00
1:51 am 01:51 Clear 60 15.6 49 9.4 67 67 Calm 29.93 1013 10 16 0.00 0.00
2:51 am 02:51 Clear 56 13.3 50 10 81 81 SSE 5 7 29.92 1013 10 16 0.00 0.00
3:51 am 03:51 Clear 56 13.3 49 9.4 77 77 ESE 3 6 29.93 1014 10 16 0.00 0.00
4:51 am 04:51 Clear 53 11.7 49 9.4 86 86 SSE 3 6 29.95 1014 10 16 0.00 0.00
5:51 am 05:51 Clear 55 12.8 46 7.8 72 72 Calm 29.96 1015 10 16 0.00 0.00
6:51 am 06:51 Sunny 53 11.7 49 9.4 86 86 NNW 3 6 29.99 1016 10 16 0.00 0.00
7:51 am 07:51 Sunny 61 16.1 49 9.4 65 65 Calm 30.01 1016 10 16 0.00 0.00
8:51 am 08:51 Sunny 68 20 47 8.3 47 47 Calm 30.01 1016 10 16 0.00 0.00
9:51 am 09:51 Sunny 76 24.4 44 6.7 32 32 undefined N/A 29.99 1016 10 16 0.00 0.00
10:51 am 10:51 Sunny 80 26.7 40 4.4 24 24 SE 3 6 29.97 1015 10 16 0.00 0.00
11:51 am 11:51 Sunny 83 28.3 42 5.6 24 24 S 5 7 29.94 1014 10 16 0.00 0.00
12:51 pm 12:51 Sunny 84 28.9 42 5.6 23 23 Calm 29.91 1013 10 16 0.00 0.00
1:51 pm 13:51 Sunny 86 30 39 3.9 19 19 S 3 6 29.88 1012 10 16 0.00 0.00
2:51 pm 14:51 Sunny 87 30.6 39 3.9 18 18 W 5 7 29.86 1011 10 16 0.00 0.00
3:51 pm 15:51 Sunny 87 30.6 35 1.7 16 16 Calm 29.85 1011 10 16 0.00 0.00
4:51 pm 16:51 Sunny 84 28.9 44 6.7 25 25 Calm 29.85 1011 10 16 0.00 0.00
5:51 pm 17:51 Clear 77 25 54 12.2 45 45 WNW 6 9 29.85 1011 10 16 0.00 0.00
6:51 pm 18:51 Clear 75 23.9 48 8.9 39 39 NW 9 15 29.88 1012 10 16 0.00 0.00
7:51 pm 19:51 Clear 72 22.2 45 7.2 38 38 NNW 7 11 29.88 1012 10 16 0.00 0.00
8:51 pm 20:51 Clear 67 19.4 46 7.8 47 47 NNW 8 13 29.88 1012 10 16 0.00 0.03
9:51 pm 21:51 Clear 67 19.4 42 5.6 41 41 undefined N/A 29.88 1012 10 16 0.00 0.00
10:51 pm 22:51 Clear 63 17.2 46 7.8 54 54 WSW 3 6 29.89 1012 10 16 0.00 0.00
11:51 pm 23:51 Clear 58 14.4 49 9.4 72 72 undefined N/A 29.91 1013 10 16 0.00 0.00

Powered by AerisWeather